Regional Weather Roundup
Issued by NWS Cleveland, OH

Home | Current Version | Previous Version | Text Only | Print | Product List | Glossary Off
Versions: 1 2 3 4 5 6 7 8 9 10 11 12 13 14 15 16 17 18 19 20 21 22 23 24 25 26 27 28 29 30 31 32 33 34 35 36 37 38 39 40 41 42 43 44 45 46 47 48 49 50

000
ASUS41 KCLE 282110
RWRCLE
OHIO REGIONAL WEATHER ROUNDUP
NATIONAL WEATHER SERVICE WILMINGTON, OH
400 PM EST SUN DEC 28 2014

NOTE: "FAIR" INDICATES FEW OR NO CLOUDS BELOW 12,000 FEET WITH NO
SIGNIFICANT WEATHER AND/OR OBSTRUCTIONS TO VISIBILITY.

OHZ001>008-015>018-024>027-034-035-043-044-282200-
   NORTHWEST OHIO

CITY           SKY/WX    TMP DP  RH WIND       PRES   REMARKS
DEFIANCE       CLOUDY    36  25  64 W5        30.15R
FINDLAY        CLOUDY    37  27  67 W9        30.11S
TOLEDO EXPRESS CLOUDY    35  25  66 W9        30.12R WCI  28
TOLEDO METCALF CLOUDY    37  26  64 W9        30.12R
LIMA           CLOUDY    36  27  69 NW10      30.12R
$$

OHZ009>014-019>023-028>033-038-089-282200-
   NORTHEAST OHIO

CITY           SKY/WX    TMP DP  RH WIND       PRES   REMARKS
CLE-HOPKINS    CLOUDY    36  30  79 W8        30.13R
CLE-LAKEFRONT  CLOUDY    37  33  85 W9        30.09R
CUY CO. ARPT   CLOUDY    37  34  87 W13       30.10R
LORAIN-ELYRIA  CLOUDY    36  30  79 NW9       30.11R
ASHTABULA      CLOUDY    36  28  73 NW3       30.08R
AKRON-CANTON   CLOUDY    37  30  75 W6        30.08R
WOOSTER        CLOUDY    36  30  79 NW7       30.09R
MANSFIELD      CLOUDY    35  31  85 W5        30.09R
YOUNGSTOWN     CLOUDY    35  32  88 NW6       30.07R
$$

OHZ042-051>053-060>062-070>072-077>081-282200-
  SOUTHWEST OHIO

CITY           SKY/WX    TMP DP  RH WIND       PRES   REMARKS
CINC-COVINGTON CLOUDY    37  26  64 N6        30.14R
CINC-LUNKEN    CLOUDY    37  30  75 NW6       30.17R
HAMILTON       CLOUDY    38  29  70 NW8       30.17R
DAYTON         CLOUDY    36  29  75 NW7       30.14R
WRIGHT-PAT AFB CLOUDY    37  29  74 NW7       30.14R
DAYTON GENERAL CLOUDY    37  28  70 NW7       30.13R
WILMINGTON     CLOUDY    36  28  73 NW6       30.12R
$$

OHZ036-037-039>041-045>050-054>059-063>069-073>076-082>088-282200-
  CENTRAL AND SOUTHEAST OHIO

CITY           SKY/WX    TMP DP  RH WIND       PRES   REMARKS
COLUMBUS       CLOUDY    37  29  72 NW8       30.10R
OSU AIRPORT    CLOUDY    37  30  75 N8        30.11R
BOLTON FIELD   CLOUDY    37  30  75 NW5       30.13R
RICKENBACK AFB CLOUDY    37  30  75 NW3       30.11R
NEWARK         CLOUDY    38  30  73 NW5       30.11R
MARION         CLOUDY    36  29  75 NW9       30.11R
LANCASTER      CLOUDY    38  30  73 NW6       30.12R
ZANESVILLE     CLOUDY    37  29  72 NW7       30.11R
NEW PHILLY     CLOUDY    39  30  70 W7        30.10R
$$


USA.gov is the U.S. government's official web portal to all federal, state and local government web resources and services.